NOZ51B ESSA-EDDH

Flight info

Callsign NOZ51B
Flight time N/A
Altitude 38000
Route NOSLI N850 ABAMA DCT GIMRU T503 MICOS N850 BOGMU BOGMU3P
Aircraft B738/M-SDE2E3FGHIRWXY/LB1

Departure

Time N/A
Airport Stockholm-Arlanda Airport (ESSA)

Arrival

Time 2026-04-24 19:07
Airport Hamburg Helmut Schmidt Airport (EDDH)
Time Latitude Longitude Altitude Speed Heading
2026-04-24 18:54 54.25582 10.89977 11954 ft 337 kts 221°
2026-04-24 18:55 54.21823 10.85366 11140 ft 333 kts 221°
2026-04-24 18:55 54.19943 10.83064 10742 ft 332 kts 221°
2026-04-24 18:55 54.18089 10.80800 10587 ft 322 kts 221°
2026-04-24 18:56 54.16294 10.78613 10424 ft 313 kts 221°
2026-04-24 18:56 54.14561 10.76505 10279 ft 297 kts 222°
2026-04-24 18:56 54.12908 10.74496 10130 ft 288 kts 222°
2026-04-24 18:56 54.11298 10.72534 9844 ft 282 kts 222°
2026-04-24 18:57 54.09711 10.70598 9582 ft 279 kts 222°
2026-04-24 18:57 54.08135 10.68676 9301 ft 278 kts 222°
2026-04-24 18:57 54.06567 10.66767 9018 ft 276 kts 222°
2026-04-24 18:57 54.05006 10.64870 8726 ft 276 kts 221°
2026-04-24 18:58 54.03445 10.62974 8424 ft 275 kts 221°
2026-04-24 18:58 54.01887 10.61085 8121 ft 276 kts 221°
2026-04-24 18:58 54.00318 10.59183 7788 ft 278 kts 221°
2026-04-24 18:58 53.98750 10.57288 7486 ft 275 kts 221°
2026-04-24 18:59 53.97185 10.55398 7210 ft 275 kts 221°
2026-04-24 18:59 53.95641 10.53537 7125 ft 269 kts 220°
2026-04-24 18:59 53.94126 10.51712 7105 ft 265 kts 221°
2026-04-24 18:59 53.92606 10.49878 6866 ft 272 kts 220°
2026-04-24 19:00 53.91067 10.48024 6643 ft 269 kts 220°
2026-04-24 19:00 53.89561 10.46216 6343 ft 261 kts 220°
2026-04-24 19:00 53.88088 10.44447 5887 ft 259 kts 220°
2026-04-24 19:00 53.86612 10.42690 5430 ft 259 kts 220°
2026-04-24 19:01 53.85133 10.40951 5023 ft 259 kts 220°
2026-04-24 19:01 53.83658 10.39228 4686 ft 256 kts 220°
2026-04-24 19:01 53.82234 10.37479 4362 ft 248 kts 228°
2026-04-24 19:01 53.81084 10.35396 4074 ft 240 kts 236°
2026-04-24 19:02 53.80380 10.33951 3871 ft 237 kts 237°
2026-04-24 19:02 53.78999 10.31105 3530 ft 231 kts 236°
2026-04-24 19:02 53.77983 10.29042 3303 ft 226 kts 236°
2026-04-24 19:02 53.76982 10.27022 3060 ft 222 kts 236°
2026-04-24 19:03 53.76017 10.25082 2988 ft 209 kts 237°
2026-04-24 19:03 53.75121 10.23276 2982 ft 193 kts 237°
2026-04-24 19:03 53.74271 10.21557 2986 ft 190 kts 237°
2026-04-24 19:03 53.73418 10.19829 2988 ft 192 kts 237°
2026-04-24 19:04 53.72559 10.18092 2889 ft 194 kts 237°
2026-04-24 19:04 53.71694 10.16345 2646 ft 194 kts 237°
2026-04-24 19:04 53.70834 10.14610 2395 ft 189 kts 236°
2026-04-24 19:04 53.70012 10.12950 2126 ft 179 kts 236°
2026-04-24 19:05 53.69246 10.11404 1899 ft 169 kts 237°
2026-04-24 19:05 53.68500 10.09892 1653 ft 164 kts 237°
2026-04-24 19:05 53.67777 10.08423 1449 ft 168 kts 237°
2026-04-24 19:05 53.67030 10.06914 1194 ft 163 kts 236°
2026-04-24 19:06 53.66343 10.05523 979 ft 149 kts 237°
2026-04-24 19:06 53.65698 10.04228 754 ft 141 kts 237°
2026-04-24 19:06 53.65070 10.02939 545 ft 145 kts 236°
2026-04-24 19:06 53.64431 10.01663 341 ft 140 kts 235°
2026-04-24 19:07 53.63820 10.00405 127 ft 137 kts 235°
2026-04-24 19:07 53.63242 9.99237 52 ft 111 kts 230°
2026-04-24 19:07 53.62974 9.98699 48 ft 70 kts 230°
2026-04-24 19:07 53.62732 9.98385 49 ft 17 kts 150°
2026-04-24 19:08 53.62690 9.98438 49 ft 3 kts 135°
2026-04-24 19:08 53.62677 9.98491 50 ft 8 kts 93°
2026-04-24 19:08 53.62712 9.98597 50 ft 13 kts 51°
2026-04-24 19:08 53.62773 9.98717 49 ft 13 kts 49°
2026-04-24 19:09 53.62830 9.98835 49 ft 13 kts 51°
2026-04-24 19:09 53.62886 9.98949 49 ft 13 kts 50°
2026-04-24 19:09 53.62941 9.99060 49 ft 12 kts 50°
2026-04-24 19:09 53.62994 9.99168 49 ft 12 kts 50°
2026-04-24 19:10 53.63045 9.99273 49 ft 11 kts 53°
2026-04-24 19:10 53.63074 9.99342 49 ft 3 kts 55°
2026-04-24 19:10 53.63096 9.99392 49 ft 9 kts 54°
2026-04-24 19:10 53.63139 9.99499 49 ft 12 kts 54°
2026-04-24 19:11 53.63197 9.99619 49 ft 13 kts 50°
2026-04-24 19:11 53.63225 9.99678 49 ft 4 kts 57°
2026-04-24 19:11 53.63228 9.99733 49 ft 9 kts 110°
2026-04-24 19:11 53.63159 9.99818 49 ft 9 kts 154°
2026-04-24 19:12 53.63102 9.99867 49 ft 9 kts 152°
2026-04-24 19:12 53.63058 9.99906 49 ft 6 kts 153°
2026-04-24 19:12 53.63032 9.99928 49 ft 3 kts 153°
2026-04-24 19:12 53.62994 9.99961 47 ft 10 kts 153°
2026-04-24 19:13 53.62971 9.99981 49 ft 12 kts 153°
2026-04-24 19:13 53.62871 10.00055 48 ft 11 kts 160°
2026-04-24 19:13 53.62816 10.00127 50 ft 10 kts 95°
2026-04-24 19:13 53.62835 10.00193 48 ft 3 kts 60°
2026-04-24 19:14 53.62835 10.00194 49 ft 0 kts 60°